[Date Prev][Date Next][Thread Prev][Thread Next] - [Date Index][Thread Index][Author Index]

2 Line ISS Keps 2-19



ISS
1 25544U 98067A   04050.36482395  .00015768  00000-0  14850-3 0  2260
2 25544  51.6281 210.7203 0006775 182.4179 271.0672 15.67261780299678

----
Via the sarex mailing list at AMSAT.ORG courtesy of AMSAT-NA.
To unsubscribe, send "unsubscribe sarex" to Majordomo@amsat.org



AMSAT Top AMSAT Home